This demonstration page uses our WeatherBlox Daily Observations layout. Learn more.

Left ArrowRight Arrow

Hourly Observations for July 17, 2017

Temp ( °F °C ) Dew Point ( °F °C ) Humidity (%) Winds ( mph kmh ) Pressure ( in mb ) Visibility ( mi km ) Precip ( " mm )
12:53 am 00:53 Clear 76 24.4 64 17.8 67 67 S 6 9 29.94 1014 10 16 0.00 0.00
1:53 am 01:53 Clear 74 23.3 64 17.8 71 71 S 6 9 29.94 1014 10 16 0.00 0.00
2:53 am 02:53 Clear 73 22.8 63 17.2 71 71 S 6 9 29.94 1014 10 16 0.00 0.00
3:53 am 03:53 Clear 72 22.2 63 17.2 73 73 S 7 11 29.93 1014 10 16 0.00 0.00
4:53 am 04:53 Clear 71 21.7 63 17.2 76 76 S 5 7 29.93 1014 10 16 0.00 0.00
5:53 am 05:53 Clear 70 21.1 63 17.2 79 79 S 5 7 29.94 1014 10 16 0.00 0.00
6:53 am 06:53 Sunny 71 21.7 62 16.7 73 73 S 7 11 29.94 1014 10 16 0.00 0.00
7:53 am 07:53 Sunny 74 23.3 63 17.2 69 69 S 7 11 29.94 1014 10 16 0.00 0.00
8:53 am 08:53 Sunny 77 25 65 18.3 66 66 S 9 15 29.95 1014 10 16 0.00 0.00
9:53 am 09:53 Sunny 82 27.8 68 20 63 63 S 8 13 29.94 1014 10 16 0.00 0.00
10:53 am 10:53 Sunny 84 28.9 68 20 59 59 SSW 9 15 29.94 1014 10 16 0.00 0.00
11:53 am 11:53 Sunny 88 31.1 67 19.4 50 50 SSW 13 20 29.93 1014 10 16 0.00 0.00
12:53 pm 12:53 Sunny 92 33.3 64 17.8 40 40 S 8 13 29.92 1013 10 16 0.00 0.00
1:53 pm 13:53 Sunny 91 32.8 65 18.3 42 42 S 12 19 29.90 1013 10 16 0.00 0.00
2:53 pm 14:53 Sunny 92 33.3 64 17.8 40 40 S 12 19 29.89 1012 10 16 0.00 0.00
3:53 pm 15:53 Sunny 93 33.9 64 17.8 38 38 S 10 17 29.88 1012 10 16 0.00 0.00
4:53 pm 16:53 Sunny 95 35 61 16.1 32 32 S 10 17 29.85 1011 10 16 0.00 0.00
5:53 pm 17:53 Mostly Sunny 89 31.7 64 17.8 43 43 SE 8 13 29.86 1011 10 16 0.00 0.00
6:28 pm 18:28 Mostly Cloudy with Nearby Thunderstorms 85 29.4 68 20 57 57 WNW 16 26 29.85 1011 10 16 0.00 0.03
6:41 pm 18:41 Mostly Cloudy with Light Rain 76 24.4 70 21.1 82 82 NW 20 31 29.88 1012 9 14 0.01 0.25
6:53 pm 18:53 Cloudy with Light Rain 73 22.8 69 20.6 87 87 WNW 16 26 29.94 1014 10 16 0.01 0.25
7:05 pm 19:05 Mostly Cloudy with Thunderstorms 73 22.8 69 20.6 87 87 WNW 18 30 29.91 1013 6 10 0.03 0.76
7:26 pm 19:26 Cloudy with Nearby Thunderstorms 72 22.2 69 20.6 91 91 WNW 20 31 29.94 1014 8 13 0.05 1.27
7:33 pm 19:33 Cloudy with Thunderstorms 72 22.2 69 20.6 91 91 WNW 17 28 29.94 1014 7 11 0.06 1.52
7:48 pm 19:48 Cloudy with Nearby Thunderstorms 72 22 70 21 94 94 WNW 14 22 29.94 1014 3 4 0.00 0.00
7:53 pm 19:53 Windy with Storms Likely 72 22.2 69 20.6 91 91 WNW 20 31 29.93 1014 2 3 0.11 2.79
8:04 pm 20:04 Cloudy with Nearby Thunderstorms 72 22 68 20 88 88 W 18 30 29.94 1014 5 8 0.00 0.00
8:37 pm 20:37 Cloudy with Rain 71 21.7 66 18.9 84 84 SW 7 11 29.94 1014 5 8 0.12 3.05
8:53 pm 20:53 Cloudy with Nearby Thunderstorms 71 21.7 67 19.4 87 87 SSW 8 13 29.94 1014 7 11 0.14 3.56
9:13 pm 21:13 Cloudy with Rain 72 22.2 64 17.8 76 76 S 15 24 29.88 1012 6 10 0.03 0.76
9:26 pm 21:26 Cloudy with Nearby Thunderstorms 71 21.7 64 17.8 79 79 SE 14 22 29.88 1012 5 8 0.07 1.78
9:51 pm 21:51 Mostly Cloudy with Thunderstorms 72 22 66 19 83 83 ESE 14 22 29.85 1011 7 11 0.10 2.54
9:53 pm 21:53 Mostly Cloudy with Thunderstorms 71 21.7 66 18.9 84 84 E 13 20 29.88 1012 7 11 0.10 2.54
10:06 pm 22:06 Mostly Cloudy with Nearby Thunderstorms 72 22 66 19 83 83 SSE 9 15 29.85 1011 7 11 0.00 0.00
10:15 pm 22:15 Mostly Cloudy with Rain 73 23 66 19 78 78 SSE 12 19 29.88 1012 7 11 0.00 0.00
10:46 pm 22:46 Partly Cloudy with Nearby Thunderstorms 70 21 66 19 88 88 SSE 12 19 29.91 1013 9 14 0.00 0.00
10:53 pm 22:53 Mostly Cloudy with Nearby Thunderstorms 69 20.6 66 18.9 90 90 SE 14 22 29.90 1012 10 16 0.13 3.30
11:01 pm 23:01 Partly Cloudy with Light Rain 69 20.6 66 18.9 90 90 S 7 11 29.91 1013 10 16 0.00 0.03
11:53 pm 23:53 Partly Cloudy 69 20.6 67 19.4 93 93 S 7 11 29.91 1013 10 16 0.00 0.03

Powered by AerisWeather